Location: Krasnoyarskiy Pitomnik
(51.1333°N, 71.6167°E)
Time: 22:01:31
(UTC+00:00)

Vanguard 1 - Pass Details

Date: 14 April 2024
Orbit: 651 x 3826 km, 34.2° (Epoch: 18 May)

Event Time Altitude Azimuth Distance (km) Brightness Sun altitude
Rises 22:59:39 0° 200° (SSW) 7,764 14.2 -12.0°
Reaches altitude 10° 23:07:56 10° 185° (S) 6,334 13.8 -10.9°
Maximum altitude 23:18:25 18° 151° (SSE) 4,890 13.6 -9.5°
Drops below altitude 10° 23:26:27 10° 116° (ESE) 4,719 14.1 -8.4°
Sets 23:31:06 0° 98° (E) 5,183 14.8 -7.7°
